User: anonymous   Login
Location: Caltech
(34.1382°N, 118.1253°W)
Time: 11:18:13
(UTC-07:00)
Language:

RS-15 - Orbit

View from above orbital plane
View from above orbital plane
View from above satellite
View from above satellite

Ground track
Ground track

The orbit data is extracted from the following two-line orbital elements,

1 23439U 94085A   17080.93081340 -.00000058 +00000-0 -43206-3 0  9994
2 23439 064.8198 000.2989 0167752 260.7968 214.1464 11.27565573915574
Epoch (UTC): 21 March 2017 22:20:22
Eccentricity: 0.0167752
inclination: 64.8198°
perigee height: 1881 km
apogee height: 2163 km
right ascension of ascending node: 0.2989°
argument of perigee: 260.7968°
revolutions per day: 11.27565573
mean anomaly at epoch: 214.1464°
orbit number at epoch: 91557

The dashed part of the orbit path shows where the satellite is in the earth's shadow,  

DLR